Showing default

CENTISPACE-1 S5, 54020

Orbit data source: Space-Track

CENTISPACE-1 S5, 54020 is a payload satellite owned by Centispace (CN) in LEO that was launched on Fri, 07 Oct 2022 UTC via a CHANG ZHENG 11 launch vehicle from the Yellow Sea Launch Area, China (YSLA). Payload-class satellites include a variety of spacecraft equipped with specific instruments for various scientific and technological missions. These include communications satellites like Starlink; space stations such as the ISS; scientific satellites like the Hubble; Earth observation satellites from companies like Planet Labs, Umbra, and HawkEye 360; GPS; miniature CubeSats for education and research; and military/defense satellites.

Loading next visibility...
Identifier
54020, 2022-126A
Orbit
LEO
Country
Flag of CNCN / PRC
Related business
Manufacturer
IMI/CAS
Mission
Operational Commercial Nav/Com
Bus & Motor
WN100, Unknown motor
Mass
97 kg wet, 97 kg dry
Launch date (UTC)
2022-10-07 (4 years ago)
Launch vehicle
CHANG ZHENG 11
Launch site
Yellow Sea Launch Area, China (YSLA)
Object type
Payload
Rocket body
Debris
Shape & HBR
Box + 2 Pan, 1.0 m
Radar Cross Section
0.833 m², Large (>1 m²)

Expand to show TLE details & history
Last TLE update: 2 days ago

TLE from 2 days ago
0 CENTISPACE-1 S5
1 54020U 22126A   26171.43148625  .00000310  00000-0  96681-4 0  9992
2 54020  54.9972 199.9776 0014668  78.4213 281.8427 14.63017482197518
Epoch: 2026-06-20T10:21Z
TLE epoch observation values (Epoch: 2026-06-20T10:21:20.411Z)
Latitude
-0.00004°
Longitude
135.99632°
Altitude
682.399 km
Speed
7.518 km/s
True Right ascension
13h 19m 54s
True Declination
0° 00' 00"
Sunlit
Object was in daylight at epoch
Visualization orbit readout
Latitude
Unknown
Longitude
Unknown
Altitude
Unknown
Speed
Unknown
Apparent Right ascension
Unknown
Apparent Declination
Unknown
Sunlit
N/A
Visualization observer readout
Local Sidereal Time
21:24:11
Azimuth
Unknown
Elevation
Unknown
Doppler factor
Unknown
Orbital elements
Apogee altitude
693.77 km
Perigee altitude
673.054 km
Semi-major axis
7,061.549 km
Eccentricity
0.00147
Inclination
54.9972°
RAAN
199.9776°
Arg. of periapsis
78.4213°
True anomaly
281.67813°
Mean anomaly
281.8427°
Eccentric anomaly
281.76042°
Mean motion
3.65757 °/min
Orbital period
98.43 mins
BSTAR
0.000096681
Loading maneuver chart data...
Computing Atmospheric mass density...
Loading historical data...
Loading historical data...
Loading historical data...
Loading historical data...
Loading historical data...
Loading historical data...
Loading historical data...
Other satellites on launch #126 in the year 2022 (2022-10-07 UTC)

Documentation

Showing up to 5 results
|